User: anonymous   Login
Location: Unspecified
(0.0000°N, 0.0000°E)
Time: 20:00:23
(UTC+00:00)
Language:

TATIANA - Orbit

View from above orbital plane
View from above orbital plane
View from above satellite
View from above satellite

Ground track
Ground track

The orbit data is extracted from the following two-line orbital elements,

1 28523U 05002C   18351.44311968  .00000051  00000-0  30354-4 0  9996
2 28523  82.9489 316.2226 0036893 223.8058 136.0177 13.87471700704162
Epoch (UTC): 17 December 2018 10:38:05
Eccentricity: 0.0036893
inclination: 82.9489°
perigee height: 910 km
apogee height: 964 km
right ascension of ascending node: 316.2226°
argument of perigee: 223.8058°
revolutions per day: 13.87471700
mean anomaly at epoch: 136.0177°
orbit number at epoch: 70416

The dashed part of the orbit path shows where the satellite is in the earth's shadow,  

DLR